Carlton, MN

2:50 PM CST on December 04, 2016 (GMT -0600)
Cloquet Carlton County

Weather History for KCOQ - September, 2013

Change the Weather History Date:

Monday, September 2, 2013

  Actual Average Record
Temperature  
Mean Temperature 54 °F -  
Max Temperature 64 °F 70 °F 84 °F (2004)
Min Temperature 44 °F 51 °F 44 °F (1997)
Degree Days  
Heating Degree Days 11    
Growing Degree Days 4 (Base 50)    
Moisture  
Dew Point 46 °F    
Average Humidity 73    
Maximum Humidity 93    
Minimum Humidity 48    
Precipitation  
Precipitation 0.00 in - - ()
Sea Level Pressure  
Sea Level Pressure 30.06 in    
Wind  
Wind Speed 6 mph (NNW)    
Max Wind Speed 12 mph    
Max Gust Speed 17 mph    
Visibility 10 miles    
Events      
Averages and records for this station are not official NWS values.
T = Trace of Precipitation, MM = Missing Value Source: NWS Daily Summary

Daily Weather History Graph

Daily Weather History Graph

Search for Another Location

Airport or City:

Trip Planner

Search our weather history database for the weather conditions in past years. The results will help you decide how hot, cold, wet, or windy it might be!

Date:

Astronomy

Sep. 02, 2013 Rise Set
Actual Time 6:31 AM CDT 7:46 PM CDT
Civil Twilight 6:00 AM CDT 8:17 PM CDT
Nautical Twilight 5:22 AM CDT 8:55 PM CDT
Astronomical Twilight 4:42 AM CDT 9:35 PM CDT
Moon 3:42 AM CDT (9/2) 6:04 PM CDT (9/2)
Length of Visible Light 14h 17m
Length of Day
13h 15m
Waning Crescent, 8% of the Moon is Illuminated
Sep 2
Waning Crescent
Sep 5
New
Sep 12
First Quarter
Sep 19
Full
Sep 26
Last Quarter

Hourly Weather History & Observations

Time (CDT) Temp. Windchill Dew Point Humidity Pressure Visibility Wind Dir Wind Speed Gust Speed Precip Events Conditions
12:16 AM 55.4 °F - 51.8 °F 88% 30.01 in 10.0 mi NNW 8.1 mph - N/A   Overcast
12:36 AM 55.4 °F - 51.8 °F 88% 30.01 in 10.0 mi NW 5.8 mph - N/A   Overcast
12:56 AM 55.4 °F - 50.0 °F 82% 30.01 in 10.0 mi NW 5.8 mph - N/A   Overcast
1:16 AM 55.4 °F - 50.0 °F 82% 30.01 in 10.0 mi NW 6.9 mph - N/A   Overcast
1:36 AM 53.6 °F - 50.0 °F 88% 30.01 in 10.0 mi NNW 6.9 mph - N/A   Overcast
1:56 AM 53.6 °F - 50.0 °F 88% 30.01 in 10.0 mi NNW 6.9 mph - N/A   Overcast
2:16 AM 53.6 °F - 50.0 °F 88% 30.01 in 10.0 mi NNW 5.8 mph - N/A   Overcast
2:35 AM 53.6 °F - 48.2 °F 82% 30.01 in 10.0 mi North 4.6 mph - N/A   Overcast
2:56 AM 53.6 °F - 48.2 °F 82% 30.01 in 10.0 mi NNE 8.1 mph - N/A   Overcast
3:15 AM 53.6 °F - 48.2 °F 82% 30.01 in 10.0 mi North 6.9 mph - N/A   Overcast
3:36 AM 53.6 °F - 48.2 °F 82% 30.01 in 10.0 mi North 6.9 mph - N/A   Overcast
3:56 AM 53.6 °F - 48.2 °F 82% 30.01 in 10.0 mi NNW 10.4 mph - N/A   Overcast
4:15 AM 51.8 °F - 46.4 °F 82% 30.02 in 10.0 mi North 5.8 mph - N/A   Scattered Clouds
4:36 AM 51.8 °F - 46.4 °F 82% 30.03 in 10.0 mi North 4.6 mph - N/A   Mostly Cloudy
4:56 AM 51.8 °F - 46.4 °F 82% 30.03 in 10.0 mi NNW 4.6 mph - N/A   Overcast
5:15 AM 51.8 °F - 46.4 °F 82% 30.04 in 10.0 mi NNW 5.8 mph - N/A   Overcast
5:36 AM 51.8 °F - 46.4 °F 82% 30.04 in 10.0 mi NNW 8.1 mph - N/A   Overcast
5:55 AM 51.8 °F - 46.4 °F 82% 30.05 in 10.0 mi NNW 6.9 mph - N/A   Overcast
6:16 AM 51.8 °F - 46.4 °F 82% 30.05 in 10.0 mi NNW 10.4 mph - N/A   Overcast
6:35 AM 51.8 °F - 46.4 °F 82% 30.06 in 10.0 mi NNW 4.6 mph - N/A   Overcast
6:56 AM 51.8 °F - 46.4 °F 82% 30.06 in 10.0 mi NNW 5.8 mph - N/A   Overcast
7:16 AM 51.8 °F - 44.6 °F 76% 30.07 in 10.0 mi North 5.8 mph - N/A   Overcast
7:35 AM 51.8 °F - 46.4 °F 82% 30.07 in 10.0 mi NNW 5.8 mph - N/A   Overcast
7:56 AM 51.8 °F - 44.6 °F 76% 30.08 in 10.0 mi North 6.9 mph - N/A   Overcast
8:16 AM 51.8 °F - 46.4 °F 82% 30.09 in 10.0 mi NNW 8.1 mph - N/A   Overcast
8:36 AM 51.8 °F - 44.6 °F 76% 30.09 in 10.0 mi North 8.1 mph - N/A   Overcast
8:56 AM 51.8 °F - 44.6 °F 76% 30.09 in 10.0 mi NW 8.1 mph - N/A   Overcast
9:16 AM 51.8 °F - 44.6 °F 76% 30.10 in 10.0 mi NW 10.4 mph - N/A   Overcast
9:36 AM 53.6 °F - 44.6 °F 72% 30.10 in 10.0 mi NNW 10.4 mph 16.1 mph N/A   Overcast
9:56 AM 53.6 °F - 44.6 °F 72% 30.10 in 10.0 mi NNW 11.5 mph 17.3 mph N/A   Overcast
10:16 AM 53.6 °F - 44.6 °F 72% 30.10 in 10.0 mi NNW 9.2 mph - N/A   Overcast
10:36 AM 53.6 °F - 44.6 °F 72% 30.10 in 10.0 mi NW 8.1 mph - N/A   Overcast
10:56 AM 53.6 °F - 46.4 °F 77% 30.10 in 10.0 mi NW 8.1 mph - N/A   Overcast
11:16 AM 55.4 °F - 44.6 °F 67% 30.11 in 10.0 mi NNW 6.9 mph - N/A   Overcast
11:36 AM 55.4 °F - 44.6 °F 67% 30.11 in 10.0 mi North 6.9 mph - N/A   Overcast
11:55 AM 55.4 °F - 44.6 °F 67% 30.11 in 10.0 mi NW 11.5 mph - N/A   Overcast
12:16 PM 57.2 °F - 44.6 °F 63% 30.11 in 10.0 mi NNW 5.8 mph - N/A   Overcast
12:36 PM 59.0 °F - 44.6 °F 59% 30.10 in 10.0 mi NW 9.2 mph - N/A   Mostly Cloudy
12:55 PM 57.2 °F - 44.6 °F 63% 30.10 in 10.0 mi NW 5.8 mph - N/A   Mostly Cloudy
1:16 PM 57.2 °F - 44.6 °F 63% 30.10 in 10.0 mi NNW 6.9 mph - N/A   Mostly Cloudy
1:36 PM 59.0 °F - 44.6 °F 59% 30.09 in 10.0 mi WNW 6.9 mph - N/A   Scattered Clouds
1:55 PM 60.8 °F - 44.6 °F 55% 30.09 in 10.0 mi NW 4.6 mph - N/A   Scattered Clouds
2:16 PM 60.8 °F - 44.6 °F 55% 30.08 in 10.0 mi NNW 6.9 mph - N/A   Clear
2:36 PM 62.6 °F - 42.8 °F 48% 30.07 in 10.0 mi NW 8.1 mph - N/A   Clear
2:55 PM 62.6 °F - 44.6 °F 52% 30.07 in 10.0 mi NW 8.1 mph - N/A   Clear
3:16 PM 62.6 °F - 44.6 °F 52% 30.07 in 10.0 mi NW 6.9 mph - N/A   Clear
3:35 PM 64.4 °F - 44.6 °F 49% 30.06 in 10.0 mi North 6.9 mph - N/A   Clear
3:56 PM 64.4 °F - 44.6 °F 49% 30.06 in 10.0 mi NW 5.8 mph - N/A   Clear
4:16 PM 64.4 °F - 44.6 °F 49% 30.05 in 10.0 mi Calm Calm - N/A   Clear
4:35 PM 64.4 °F - 44.6 °F 49% 30.05 in 10.0 mi North 3.5 mph - N/A   Clear
4:56 PM 64.4 °F - 44.6 °F 49% 30.05 in 10.0 mi Calm Calm - N/A   Clear
5:15 PM 64.4 °F - 44.6 °F 49% 30.06 in 10.0 mi WNW 3.5 mph - N/A   Clear
5:36 PM 64.4 °F - 44.6 °F 49% 30.05 in 10.0 mi NNW 3.5 mph - N/A   Clear
5:56 PM 64.4 °F - 44.6 °F 49% 30.05 in 10.0 mi Calm Calm - N/A   Clear
6:15 PM 64.4 °F - 44.6 °F 49% 30.04 in 10.0 mi WNW 3.5 mph - N/A   Clear
6:36 PM 64.4 °F - 44.6 °F 49% 30.04 in 10.0 mi North 3.5 mph - N/A   Clear
6:56 PM 62.6 °F - 46.4 °F 55% 30.05 in 10.0 mi Calm Calm - N/A   Clear
7:15 PM 62.6 °F - 48.2 °F 59% 30.05 in 10.0 mi Calm Calm - N/A   Clear
7:36 PM 59.0 °F - 48.2 °F 67% 30.05 in 10.0 mi Calm Calm - N/A   Clear
7:56 PM 55.4 °F - 48.2 °F 77% 30.05 in 10.0 mi Calm Calm - N/A   Clear
8:15 PM 55.4 °F - 48.2 °F 77% 30.04 in 10.0 mi Calm Calm - N/A   Clear
8:36 PM 53.6 °F - 48.2 °F 82% 30.04 in 10.0 mi Calm Calm - N/A   Clear
8:56 PM 51.8 °F - 48.2 °F 88% 30.04 in 10.0 mi Calm Calm - N/A   Clear
9:15 PM 50.0 °F - 46.4 °F 87% 30.05 in 10.0 mi Calm Calm - N/A   Clear
9:36 PM 51.8 °F - 48.2 °F 88% 30.05 in 10.0 mi Calm Calm - N/A   Clear
9:56 PM 48.2 °F - 46.4 °F 93% 30.04 in 10.0 mi Calm Calm - N/A   Clear
10:15 PM 50.0 °F - 46.4 °F 87% 30.04 in 10.0 mi Calm Calm - N/A   Clear
10:36 PM 46.4 °F - 44.6 °F 93% 30.05 in 10.0 mi Calm Calm - N/A   Clear
10:55 PM 46.4 °F - 44.6 °F 93% 30.05 in 10.0 mi Calm Calm - N/A   Clear
11:16 PM 44.6 °F 43.1 °F 42.8 °F 93% 30.05 in 10.0 mi West 3.5 mph - N/A   Clear
11:36 PM 46.4 °F - 44.6 °F 93% 30.04 in 10.0 mi Calm Calm - N/A   Clear
11:55 PM 46.4 °F - 42.8 °F 87% 30.05 in 10.0 mi Calm Calm - N/A   Clear